{"data":{"norad_id":59584,"epoch":"2026-05-25T03:23:39.520032Z","epoch_age_seconds":63069,"freshness":"FRESH","line1":"1 59584U 24076W   26145.14142963 -.00000201  00000+0  22372-5 0  9992","line2":"2 59584  43.0020 297.3550 0001440 281.4820  78.5869 15.27572266118193","mean_motion":15.27572266,"eccentricity":0.000144,"inclination_deg":43.002,"raan_deg":297.355,"arg_perigee_deg":281.482,"mean_anomaly_deg":78.5869,"bstar":2.2372e-6,"rev_number":11819,"period_min":94.267225980129,"perigee_km":482.084240383,"apogee_km":484.0602686483,"semimajor_km":6861.2092545157,"source":"CELESTRAK","updated_at":"2026-05-25T13:38:18.988857Z"}}